Le nostre stazioni meteo in Italia

Pubblicità
Il mio iltempo24.it
Chateau Chinon, Francia (7270): Temperatura & dewpoint: 15.08.2019 14:00:00 - 21.08.2019 14:00:00 (CEST)Chateau Chinon, Francia (7270): velocità del vento & gusts: 15.08.2019 14:00:00 - 21.08.2019 14:00:00 (CEST)Chateau Chinon, Francia (7270): direzione del vento: 15.08.2019 14:00:00 - 21.08.2019 14:00:00 (CEST)Chateau Chinon, Francia (7270): precipitazioni: 15.08.2019 14:00:00 - 21.08.2019 14:00:00 (CEST)
Data & Tempo tt [°C] td [°C] ff [km/h] ff [kn] fx [km/h] fx [kn] dd rr [mm]
21.08.2019 14:00:00 - - - - - - - -
21.08.2019 13:00:00 22,6 7,9 5 3 28 15 ENE 0,0
21.08.2019 12:00:00 21,8 8,3 5 3 29 16 ENE 0,0
21.08.2019 11:00:00 20,1 7,5 5 3 26 14 ENE 0,0
21.08.2019 10:00:00 18,9 8,5 4 2 21 11 ENE 0,0
21.08.2019 09:00:00 16,6 9,3 4 2 22 12 E 0,0
21.08.2019 08:00:00 11,1 8,0 2 1 9 5 NE -
21.08.2019 07:00:00 10,0 7,1 2 1 9 5 ENE 0,0
21.08.2019 06:00:00 10,6 7,3 4 2 13 7 E 0,0
21.08.2019 05:00:00 10,8 8,0 4 2 5 3 E 0,0
21.08.2019 04:00:00 11,1 8,5 2 1 5 3 E 0,0
21.08.2019 03:00:00 10,6 8,9 2 1 8 4 ESE 0,0
21.08.2019 02:00:00 10,7 9,1 2 1 16 9 E -
21.08.2019 01:00:00 11,4 9,5 4 2 15 8 E 0,0
21.08.2019 00:00:00 11,7 9,3 4 2 16 9 E 0,0
20.08.2019 23:00:00 12,2 8,5 4 2 16 9 ESE 0,0
20.08.2019 22:00:00 13,5 8,1 4 2 9 5 ESE 0,0
20.08.2019 21:00:00 14,6 7,4 2 1 13 7 SE 0,0
20.08.2019 20:00:00 17,5 5,1 2 1 15 8 N -
20.08.2019 19:00:00 20,9 6,4 4 2 18 10 E 0,0
20.08.2019 18:00:00 19,4 5,4 4 2 15 8 NNO 0,0
20.08.2019 17:00:00 20,2 6,2 2 1 16 9 ESE 0,0
20.08.2019 16:00:00 19,3 8,0 4 2 16 9 N 0,0
20.08.2019 15:00:00 18,2 7,3 4 2 11 6 NE 0,0
20.08.2019 14:00:00 18,3 8,3 4 2 11 6 NE -
20.08.2019 13:00:00 - - - - - - - -
20.08.2019 12:00:00 16,5 9,4 2 1 11 6 ENE 0,0
20.08.2019 11:00:00 15,5 9,4 4 2 11 6 NE 0,0
20.08.2019 10:00:00 14,5 9,3 2 1 11 6 E 0,0
20.08.2019 09:00:00 13,5 9,0 4 2 11 6 ENE 0,0
20.08.2019 08:00:00 12,8 8,5 2 1 9 5 E -
20.08.2019 07:00:00 12,6 8,1 2 1 11 6 E 0,0
20.08.2019 06:00:00 12,5 7,8 2 1 11 6 E 0,0
20.08.2019 05:00:00 12,3 8,0 2 1 9 5 E 0,0
20.08.2019 04:00:00 12,3 7,4 4 2 11 6 E 0,0
20.08.2019 03:00:00 12,5 7,6 4 2 11 6 E 0,0
20.08.2019 02:00:00 12,6 7,9 4 2 13 7 E -
20.08.2019 01:00:00 12,9 8,2 4 2 15 8 E 0,0
20.08.2019 00:00:00 13,6 8,0 4 2 11 6 ESE 0,0
19.08.2019 23:00:00 14,5 7,8 2 1 11 6 ENE 0,0
19.08.2019 22:00:00 15,0 7,5 2 1 15 8 NNE 0,0
19.08.2019 21:00:00 15,2 7,7 4 2 16 9 ONO 0,0
19.08.2019 20:00:00 17,4 8,3 2 1 15 8 ONO -
19.08.2019 19:00:00 20,8 8,4 4 2 15 8 NO 0,0
19.08.2019 18:00:00 21,6 7,0 4 2 18 10 ONO 0,0
19.08.2019 17:00:00 21,7 8,9 4 2 21 11 NNE 0,0
19.08.2019 16:00:00 20,8 8,1 4 2 22 12 O 0,0
19.08.2019 15:00:00 20,4 10,8 5 3 21 11 O 0,0
19.08.2019 14:00:00 19,4 9,8 4 2 21 11 O -
19.08.2019 13:00:00 17,9 11,5 4 2 16 9 O 0,0
19.08.2019 12:00:00 16,3 11,4 4 2 16 9 O 0,0
19.08.2019 11:00:00 14,6 11,4 4 2 13 7 NO 0,0
19.08.2019 10:00:00 14,4 12,6 4 2 16 9 ONO 0,0
19.08.2019 09:00:00 13,9 12,1 4 2 21 11 OSO 0,0
19.08.2019 08:00:00 12,4 12,1 4 2 16 9 O -
19.08.2019 07:00:00 12,5 12,2 4 2 16 9 ONO 0,0
19.08.2019 06:00:00 13,5 13,3 2 1 16 9 NNE 0,0
19.08.2019 05:00:00 14,2 14,0 2 1 15 8 N 0,0
19.08.2019 04:00:00 14,7 14,5 4 2 16 9 N 0,2
19.08.2019 03:00:00 15,4 15,2 2 1 15 8 NNO 0,0
19.08.2019 02:00:00 15,7 15,5 4 2 16 9 O -
19.08.2019 01:00:00 15,7 15,5 4 2 21 11 O 0,0
19.08.2019 00:00:00 15,6 15,3 0 0 11 6 N 0,0
18.08.2019 23:00:00 15,7 15,2 2 1 9 5 NE 0,0
18.08.2019 22:00:00 15,9 15,4 0 0 18 10 N 0,0
18.08.2019 21:00:00 17,0 16,4 0 0 16 9 N 0,0
18.08.2019 20:00:00 18,3 17,5 4 2 18 10 NO -
18.08.2019 19:00:00 18,8 17,8 2 1 26 14 NO 4,0
18.08.2019 18:00:00 23,1 15,9 5 3 29 16 NNO 0,0
18.08.2019 17:00:00 24,7 15,6 5 3 31 17 O 0,0
18.08.2019 16:00:00 24,9 16,9 4 2 26 14 SO 0,0
18.08.2019 15:00:00 22,3 16,6 2 1 24 13 NNO 0,0
18.08.2019 14:00:00 23,3 16,3 2 1 28 15 NNE -
18.08.2019 13:00:00 24,4 16,4 4 2 26 14 NE 0,0
18.08.2019 12:00:00 24,2 16,7 4 2 22 12 NE 0,0
18.08.2019 11:00:00 24,0 16,0 4 2 22 12 N 0,0
18.08.2019 10:00:00 24,0 15,5 4 2 24 13 NNO 0,0
18.08.2019 09:00:00 22,3 14,2 8 4 29 16 SO 0,0
18.08.2019 08:00:00 20,7 13,6 11 6 29 16 SO -
18.08.2019 07:00:00 19,9 13,4 11 6 31 17 SO 0,0
18.08.2019 06:00:00 19,6 14,4 15 8 34 18 SSO 0,0
18.08.2019 05:00:00 19,1 15,4 13 7 29 16 SSO 0,0
18.08.2019 04:00:00 18,7 15,8 13 7 22 12 SSO 0,0
18.08.2019 03:00:00 17,0 15,9 2 1 9 5 SSE 0,0
18.08.2019 02:00:00 17,2 16,1 4 2 11 6 SSO -
18.08.2019 01:00:00 17,6 15,0 2 1 13 7 NE 0,0
18.08.2019 00:00:00 19,0 14,9 2 1 13 7 N 0,0
17.08.2019 23:00:00 20,1 14,9 4 2 16 9 N 0,0
17.08.2019 22:00:00 20,8 14,4 4 2 15 8 NE 0,0
17.08.2019 21:00:00 21,5 14,2 4 2 16 9 NE 0,0
17.08.2019 20:00:00 23,6 14,0 4 2 18 10 NE -
17.08.2019 19:00:00 25,8 14,0 4 2 21 11 NNO 0,0
17.08.2019 18:00:00 24,7 13,6 4 2 18 10 NO 0,0
17.08.2019 17:00:00 25,8 13,6 4 2 37 20 NNO 0,0
17.08.2019 16:00:00 24,9 12,1 11 6 41 22 SO 0,0
17.08.2019 15:00:00 23,3 11,7 13 7 39 21 SO 0,0
17.08.2019 14:00:00 22,1 12,6 13 7 37 20 SO -
17.08.2019 13:00:00 21,2 13,6 8 4 34 18 SSO 0,0
17.08.2019 12:00:00 20,0 12,7 11 6 35 19 SO 0,0
17.08.2019 11:00:00 19,2 13,1 8 4 26 14 SO 0,0
17.08.2019 10:00:00 17,4 12,5 4 2 18 10 OSO 0,0
17.08.2019 09:00:00 16,5 12,3 4 2 18 10 OSO 0,0
17.08.2019 08:00:00 15,5 11,7 5 3 21 11 OSO -
17.08.2019 07:00:00 15,2 11,6 4 2 26 14 OSO 0,0
17.08.2019 06:00:00 16,0 11,6 5 3 26 14 OSO 0,0
17.08.2019 05:00:00 16,7 11,4 5 3 26 14 OSO 0,0
17.08.2019 04:00:00 16,8 11,1 4 2 16 9 ONO 0,0
17.08.2019 03:00:00 17,4 11,0 4 2 18 10 O 0,0
17.08.2019 02:00:00 18,1 10,7 4 2 28 15 O -
17.08.2019 01:00:00 19,4 11,2 8 4 39 21 OSO 0,0
17.08.2019 00:00:00 19,7 10,9 16 9 34 18 SSO 0,0
16.08.2019 23:00:00 18,8 10,4 5 3 15 8 SSO 0,0
16.08.2019 22:00:00 19,4 9,8 4 2 16 9 S 0,0
16.08.2019 21:00:00 19,5 9,7 4 2 21 11 S 0,0
16.08.2019 20:00:00 20,5 10,0 5 3 22 12 SO -
16.08.2019 19:00:00 23,6 9,9 8 4 22 12 SO 0,0
16.08.2019 18:00:00 23,8 9,4 9 5 22 12 SSO 0,0
16.08.2019 17:00:00 24,0 10,6 8 4 22 12 SSO 0,0
16.08.2019 16:00:00 23,6 10,6 8 4 21 11 SSO 0,0
16.08.2019 15:00:00 23,2 10,9 8 4 21 11 S 0,0
16.08.2019 14:00:00 21,8 10,0 8 4 22 12 SSO -
16.08.2019 13:00:00 22,0 12,3 5 3 22 12 SO 0,0
16.08.2019 12:00:00 20,9 12,8 4 2 13 7 ONO 0,0
16.08.2019 11:00:00 19,1 12,4 4 2 11 6 SO 0,0
16.08.2019 10:00:00 18,8 12,1 4 2 9 5 ESE 0,0
16.08.2019 09:00:00 17,5 12,0 4 2 9 5 ESE 0,0
16.08.2019 08:00:00 13,7 10,5 5 3 13 7 ESE -
16.08.2019 07:00:00 11,2 10,1 4 2 9 5 E 0,0
16.08.2019 06:00:00 11,2 9,9 4 2 11 6 ESE 0,0
16.08.2019 05:00:00 11,6 10,0 2 1 9 5 ESE 0,0
16.08.2019 04:00:00 11,5 9,7 2 1 9 5 ONO 0,0
16.08.2019 03:00:00 11,1 9,8 0 0 15 8 N 0,0
16.08.2019 02:00:00 11,5 9,6 2 1 8 4 N -
16.08.2019 01:00:00 13,2 9,8 2 1 13 7 N 0,0
16.08.2019 00:00:00 13,0 9,6 2 1 11 6 N 0,0
15.08.2019 23:00:00 14,3 9,9 2 1 9 5 NNE 0,0
15.08.2019 22:00:00 13,8 9,8 2 1 9 5 NE 0,0
15.08.2019 21:00:00 15,3 10,5 2 1 13 7 ENE 0,0
15.08.2019 20:00:00 16,9 9,6 4 2 18 10 NNE -
15.08.2019 19:00:00 20,2 11,1 4 2 16 9 NE 0,0
15.08.2019 18:00:00 19,4 10,7 4 2 21 11 NNE 0,0
15.08.2019 17:00:00 19,1 13,3 4 2 21 11 N 0,0
15.08.2019 16:00:00 16,5 12,6 4 2 18 10 NE 0,0
15.08.2019 15:00:00 16,4 12,9 0 0 28 15 N 0,0
15.08.2019 14:00:00 16,4 12,2 4 2 22 12 NNO -

tt = Temperatura
td = dewpoint
ff = velocità del vento
fx = gusts
dd = direzione del vento
rr = precipitazioni

Stazioni seguenti

WeatherPro
AMSI
MeteoEarth